Location: Asheville, NC
(35.6000°N, 82.5500°W)
Time: 01:36:00
(UTC-04:00)

Vanguard 2 Rocket - Pass Details

Date: 08 December 2017
Orbit: 553 x 3328 km, 32.9° (Epoch: 25 April)

Event Time Altitude Azimuth Distance (km) Brightness Sun altitude
Rises 22:22:38 0° 256° (WSW) 6,074 11.5 -61.1°
Reaches altitude 10° 22:26:07 10° 256° (WSW) 5,350 11.0 -61.7°
Enters shadow 22:34:18 40° 252° (WSW) 3,935 10.0 -63.3°
Maximum altitude 22:43:50 81° 172° (S) 3,309 - -65.1°
Drops below altitude 10° 23:03:59 10° 89° (E) 5,964 - -68.7°
Sets 23:08:08 0° 89° (E) 6,766 - -69.4°
